Location: Guferjoch
(46.7462°N, 8.4506°E)
Time: 13:17:47
(UTC+00:00)

Cosmos 1743 - Pass Details

Date: 14 July 2020
Orbit: 511 x 526 km, 82.6° (Epoch: 06 August)

Event Time Altitude Azimuth Distance (km) Brightness Sun altitude
Exits shadow 03:02:41 - 214° (SSW) 1,897 4.9 -6.8°
Reaches altitude 10° 03:03:06 10° 216° (SW) 1,736 4.7 -6.7°
Maximum altitude 03:06:39 37° 285° (WNW) 824 3.5 -6.3°
Drops below altitude 10° 03:10:14 10° 353° (N) 1,756 5.9 -5.8°
Sets 03:12:31 0° 2° (N) 2,652 7.0 -5.5°
